Wetterdaten: Donnerstag, 03.10.2013
Datum Zeit Temperatur Luftfeuchte Luftdruck Regen Wind Richtung Richtung Taupunkt Windchill Windben
03.10.2013 00:00 4,9 C 89 % 1021,1 hPa 0,0 l/m 3,9 km/h (1 Bft) N-NW 337 3,2 C 4,7 C 7,4 km/h (2 Bft)
03.10.2013 00:05 4,9 C 89 % 1021,1 hPa 0,0 l/m 3,7 km/h (1 Bft) N 360 3,2 C 4,8 C 4,5 km/h (1 Bft)
03.10.2013 00:10 4,9 C 89 % 1021,1 hPa 0,0 l/m 3,5 km/h (1 Bft) N-NW 337 3,2 C 4,8 C 4,3 km/h (1 Bft)
03.10.2013 00:15 4,9 C 89 % 1021,1 hPa 0,0 l/m 3,4 km/h (1 Bft) N-NW 337 3,2 C 4,9 C 5,1 km/h (1 Bft)
03.10.2013 00:20 4,9 C 89 % 1021,1 hPa 0,0 l/m 3,4 km/h (1 Bft) N-NW 337 3,2 C 4,9 C 4,2 km/h (1 Bft)
03.10.2013 00:25 4,9 C 89 % 1021,1 hPa 0,0 l/m 3,9 km/h (1 Bft) N 360 3,2 C 4,7 C 6,1 km/h (2 Bft)
03.10.2013 00:30 4,9 C 89 % 1021,1 hPa 0,0 l/m 3,7 km/h (1 Bft) N 360 3,2 C 4,8 C 3,4 km/h (1 Bft)
03.10.2013 00:35 4,9 C 90 % 1021,1 hPa 0,0 l/m 3,4 km/h (1 Bft) N-NW 337 3,4 C 4,9 C 5,3 km/h (1 Bft)
03.10.2013 00:40 5,0 C 89 % 1021,1 hPa 0,0 l/m 3,4 km/h (1 Bft) W-NW 292 3,3 C 4,9 C 3,2 km/h (1 Bft)
03.10.2013 00:45 4,9 C 90 % 1021,1 hPa 0,0 l/m 3,9 km/h (1 Bft) N 360 3,4 C 4,7 C 6,4 km/h (2 Bft)
03.10.2013 00:50 4,9 C 90 % 1021,1 hPa 0,0 l/m 3,9 km/h (1 Bft) N-NW 337 3,4 C 4,7 C 4,8 km/h (1 Bft)
03.10.2013 00:55 4,9 C 90 % 1021,1 hPa 0,0 l/m 3,5 km/h (1 Bft) W-NW 292 3,4 C 4,8 C 1,9 km/h (1 Bft)
03.10.2013 01:00 4,9 C 90 % 1021,1 hPa 0,0 l/m 3,1 km/h (1 Bft) W-NW 292 3,4 C 5,1 C 1,6 km/h (1 Bft)
03.10.2013 01:05 4,9 C 90 % 1021,1 hPa 0,0 l/m 2,1 km/h (1 Bft) N-NW 337 3,4 C 5,1 C 2,4 km/h (1 Bft)
03.10.2013 01:10 4,9 C 90 % 1021,1 hPa 0,0 l/m 2,1 km/h (1 Bft) W-NW 292 3,4 C 5,1 C 2,4 km/h (1 Bft)
03.10.2013 01:15 4,8 C 90 % 1021,1 hPa 0,0 l/m 2,4 km/h (1 Bft) W-NW 292 3,3 C 5,1 C 3,4 km/h (1 Bft)
03.10.2013 01:20 4,8 C 90 % 1021,1 hPa 0,0 l/m 2,9 km/h (1 Bft) N 360 3,3 C 5,1 C 4,5 km/h (1 Bft)
03.10.2013 01:25 4,8 C 90 % 1020,7 hPa 0,0 l/m 2,7 km/h (1 Bft) N 360 3,3 C 5,1 C 4,0 km/h (1 Bft)
03.10.2013 01:30 4,8 C 90 % 1020,7 hPa 0,0 l/m 2,3 km/h (1 Bft) N-NW 337 3,3 C 5,1 C 2,3 km/h (1 Bft)
03.10.2013 01:35 4,8 C 90 % 1020,7 hPa 0,0 l/m 2,1 km/h (1 Bft) W-NW 292 3,3 C 5,1 C 0,0 km/h (0 Bft)
03.10.2013 01:40 4,8 C 90 % 1020,7 hPa 0,0 l/m 2,3 km/h (1 Bft) N 360 3,3 C 5,0 C 4,7 km/h (1 Bft)
03.10.2013 01:45 4,8 C 90 % 1020,7 hPa 0,0 l/m 2,1 km/h (1 Bft) N-NO 22 3,3 C 5,0 C 2,9 km/h (1 Bft)
03.10.2013 01:50 4,8 C 90 % 1020,7 hPa 0,0 l/m 2,3 km/h (1 Bft) NW 315 3,3 C 5,0 C 4,0 km/h (1 Bft)
03.10.2013 01:55 4,7 C 90 % 1020,7 hPa 0,0 l/m 2,1 km/h (1 Bft) W 270 3,2 C 5,0 C 3,1 km/h (1 Bft)
03.10.2013 02:00 4,7 C 90 % 1020,7 hPa 0,0 l/m 2,7 km/h (1 Bft) N-NW 337 3,2 C 4,9 C 1,8 km/h (1 Bft)
03.10.2013 02:05 4,7 C 90 % 1020,7 hPa 0,0 l/m 3,1 km/h (1 Bft) W-NW 292 3,2 C 4,8 C 7,1 km/h (2 Bft)
03.10.2013 02:10 4,7 C 90 % 1020,7 hPa 0,0 l/m 2,3 km/h (1 Bft) N 360 3,2 C 4,9 C 5,1 km/h (1 Bft)
03.10.2013 02:15 4,6 C 90 % 1020,7 hPa 0,0 l/m 3,2 km/h (1 Bft) N 360 3,1 C 4,7 C 6,6 km/h (2 Bft)
03.10.2013 02:20 4,6 C 90 % 1020,7 hPa 0,0 l/m 3,7 km/h (1 Bft) W 270 3,1 C 4,4 C 4,8 km/h (1 Bft)
03.10.2013 02:25 4,6 C 90 % 1020,8 hPa 0,0 l/m 3,1 km/h (1 Bft) N-NW 337 3,1 C 4,7 C 4,7 km/h (1 Bft)
03.10.2013 02:30 4,5 C 90 % 1020,8 hPa 0,0 l/m 3,5 km/h (1 Bft) N-NO 22 3,0 C 4,5 C 3,5 km/h (1 Bft)
03.10.2013 02:35 4,5 C 91 % 1020,8 hPa 0,0 l/m 3,7 km/h (1 Bft) NW 315 3,2 C 4,3 C 8,9 km/h (2 Bft)
03.10.2013 02:40 4,4 C 91 % 1020,8 hPa 0,0 l/m 3,5 km/h (1 Bft) W-NW 292 3,1 C 4,4 C 4,8 km/h (1 Bft)
03.10.2013 02:45 4,3 C 91 % 1020,8 hPa 0,0 l/m 3,9 km/h (1 Bft) W-NW 292 3,0 C 4,2 C 3,2 km/h (1 Bft)
03.10.2013 02:50 4,4 C 91 % 1020,8 hPa 0,0 l/m 3,1 km/h (1 Bft) W-NW 292 3,1 C 4,4 C 3,4 km/h (1 Bft)
03.10.2013 02:55 4,3 C 91 % 1020,8 hPa 0,0 l/m 2,6 km/h (1 Bft) N-NW 337 3,0 C 4,5 C 2,7 km/h (1 Bft)
03.10.2013 03:00 4,2 C 91 % 1020,8 hPa 0,0 l/m 2,3 km/h (1 Bft) N 360 2,9 C 4,4 C 2,3 km/h (1 Bft)
03.10.2013 03:05 4,2 C 91 % 1020,5 hPa 0,0 l/m 1,3 km/h (1 Bft) N 360 2,9 C 4,4 C 3,5 km/h (1 Bft)
03.10.2013 03:10 4,1 C 91 % 1020,5 hPa 0,0 l/m 1,6 km/h (1 Bft) W-NW 292 2,8 C 4,3 C 1,6 km/h (1 Bft)
03.10.2013 03:15 4,1 C 91 % 1020,5 hPa 0,0 l/m 2,1 km/h (1 Bft) N-NW 337 2,8 C 4,2 C 4,7 km/h (1 Bft)
03.10.2013 03:20 4,1 C 91 % 1020,5 hPa 0,0 l/m 1,8 km/h (1 Bft) N-NW 337 2,8 C 4,2 C 4,0 km/h (1 Bft)
03.10.2013 03:25 4,0 C 92 % 1020,5 hPa 0,0 l/m 1,4 km/h (1 Bft) N-NW 337 2,8 C 4,1 C 3,5 km/h (1 Bft)
03.10.2013 03:30 4,1 C 92 % 1020,5 hPa 0,0 l/m 1,4 km/h (1 Bft) N-NW 337 2,9 C 4,1 C 0,0 km/h (0 Bft)
03.10.2013 03:35 4,1 C 92 % 1020,5 hPa 0,0 l/m 0,8 km/h (0 Bft) N 360 2,9 C 4,1 C 0,0 km/h (0 Bft)
03.10.2013 03:40 4,0 C 92 % 1020,5 hPa 0,0 l/m 0,8 km/h (0 Bft) W-NW 292 2,8 C 4,1 C 1,6 km/h (1 Bft)
03.10.2013 03:45 3,9 C 92 % 1020,6 hPa 0,0 l/m 1,0 km/h (0 Bft) W 270 2,7 C 4,1 C 3,2 km/h (1 Bft)
03.10.2013 03:50 3,9 C 92 % 1020,6 hPa 0,0 l/m 1,6 km/h (1 Bft) W 270 2,7 C 4,0 C 2,9 km/h (1 Bft)
03.10.2013 03:55 3,8 C 92 % 1020,6 hPa 0,0 l/m 2,4 km/h (1 Bft) W-NW 292 2,6 C 4,0 C 3,9 km/h (1 Bft)
03.10.2013 04:00 3,8 C 92 % 1020,6 hPa 0,0 l/m 1,9 km/h (1 Bft) W-NW 292 2,6 C 3,9 C 0,0 km/h (0 Bft)
03.10.2013 04:05 3,8 C 92 % 1020,6 hPa 0,0 l/m 1,4 km/h (1 Bft) W-NW 292 2,6 C 3,8 C 2,9 km/h (1 Bft)
03.10.2013 04:10 3,8 C 92 % 1020,6 hPa 0,0 l/m 1,3 km/h (1 Bft) W-NW 292 2,6 C 3,8 C 2,7 km/h (1 Bft)
03.10.2013 04:15 3,8 C 92 % 1020,6 hPa 0,0 l/m 1,6 km/h (1 Bft) W 270 2,6 C 3,8 C 1,9 km/h (1 Bft)
03.10.2013 04:20 3,7 C 92 % 1020,6 hPa 0,0 l/m 1,3 km/h (1 Bft) W-NW 292 2,5 C 3,8 C 2,6 km/h (1 Bft)
03.10.2013 04:25 3,7 C 93 % 1020,7 hPa 0,0 l/m 1,0 km/h (0 Bft) W-NW 292 2,7 C 3,7 C 1,6 km/h (1 Bft)
03.10.2013 04:30 3,7 C 93 % 1020,7 hPa 0,0 l/m 1,0 km/h (0 Bft) W-NW 292 2,7 C 3,7 C 2,1 km/h (1 Bft)
03.10.2013 04:35 3,7 C 93 % 1020,7 hPa 0,0 l/m 1,1 km/h (1 Bft) W-NW 292 2,7 C 3,7 C 3,5 km/h (1 Bft)
03.10.2013 04:40 3,6 C 93 % 1020,7 hPa 0,0 l/m 1,6 km/h (1 Bft) N-NW 337 2,6 C 3,6 C 2,7 km/h (1 Bft)
03.10.2013 04:45 3,6 C 93 % 1020,5 hPa 0,0 l/m 1,9 km/h (1 Bft) W-NW 292 2,6 C 3,6 C 4,0 km/h (1 Bft)
03.10.2013 04:50 3,5 C 93 % 1020,5 hPa 0,0 l/m 2,1 km/h (1 Bft) S-SW 202 2,5 C 3,6 C 3,1 km/h (1 Bft)
03.10.2013 04:55 3,4 C 93 % 1020,5 hPa 0,0 l/m 1,9 km/h (1 Bft) W-NW 292 2,4 C 3,5 C 3,1 km/h (1 Bft)
03.10.2013 05:00 3,4 C 93 % 1020,5 hPa 0,0 l/m 1,6 km/h (1 Bft) N-NW 337 2,4 C 3,4 C 4,5 km/h (1 Bft)
03.10.2013 05:05 3,4 C 93 % 1020,4 hPa 0,0 l/m 1,6 km/h (1 Bft) W 270 2,4 C 3,4 C 1,9 km/h (1 Bft)
03.10.2013 05:10 3,3 C 93 % 1020,4 hPa 0,0 l/m 1,3 km/h (1 Bft) W 270 2,3 C 3,4 C 0,0 km/h (0 Bft)
03.10.2013 05:15 3,3 C 93 % 1020,4 hPa 0,0 l/m 0,8 km/h (0 Bft) NW 315 2,3 C 3,4 C 2,1 km/h (1 Bft)
03.10.2013 05:20 3,3 C 93 % 1020,4 hPa 0,0 l/m 0,8 km/h (0 Bft) N-NW 337 2,3 C 3,4 C 0,0 km/h (0 Bft)
03.10.2013 05:25 3,2 C 93 % 1020,3 hPa 0,0 l/m 1,4 km/h (1 Bft) W-NW 292 2,2 C 3,3 C 3,4 km/h (1 Bft)
03.10.2013 05:30 3,1 C 93 % 1020,3 hPa 0,0 l/m 1,6 km/h (1 Bft) N-NO 22 2,1 C 3,3 C 0,0 km/h (0 Bft)
03.10.2013 05:35 3,0 C 94 % 1020,3 hPa 0,0 l/m 1,6 km/h (1 Bft) NO 45 2,1 C 3,1 C 2,1 km/h (1 Bft)
03.10.2013 05:40 2,9 C 95 % 1020,3 hPa 0,0 l/m 0,8 km/h (0 Bft) N 360 2,2 C 3,1 C 2,6 km/h (1 Bft)
03.10.2013 05:45 2,9 C 95 % 1020,2 hPa 0,0 l/m 1,1 km/h (1 Bft) W-NW 292 2,2 C 3,0 C 1,8 km/h (1 Bft)
03.10.2013 05:50 2,9 C 95 % 1020,2 hPa 0,0 l/m 1,6 km/h (1 Bft) N-NW 337 2,2 C 2,9 C 1,9 km/h (1 Bft)
03.10.2013 05:55 2,9 C 95 % 1020,2 hPa 0,0 l/m 1,4 km/h (1 Bft) W-NW 292 2,2 C 2,9 C 3,1 km/h (1 Bft)
03.10.2013 06:00 2,9 C 95 % 1020,2 hPa 0,0 l/m 1,4 km/h (1 Bft) W-NW 292 2,2 C 2,9 C 2,6 km/h (1 Bft)
03.10.2013 06:05 2,9 C 95 % 1020,2 hPa 0,0 l/m 1,9 km/h (1 Bft) W-NW 292 2,2 C 2,8 C 3,5 km/h (1 Bft)
03.10.2013 06:10 2,9 C 95 % 1020,2 hPa 0,0 l/m 1,8 km/h (1 Bft) W-NW 292 2,2 C 2,8 C 0,0 km/h (0 Bft)
03.10.2013 06:15 2,9 C 95 % 1020,2 hPa 0,0 l/m 1,0 km/h (0 Bft) W-NW 292 2,2 C 2,8 C 1,8 km/h (1 Bft)
03.10.2013 06:20 2,9 C 95 % 1020,2 hPa 0,0 l/m 1,1 km/h (1 Bft) NW 315 2,2 C 2,8 C 0,0 km/h (0 Bft)
03.10.2013 06:25 2,8 C 95 % 1020,2 hPa 0,0 l/m 1,1 km/h (1 Bft) NO 45 2,1 C 2,8 C 1,6 km/h (1 Bft)
03.10.2013 06:30 2,7 C 95 % 1020,2 hPa 0,0 l/m 0,8 km/h (0 Bft) O-NO 67 2,0 C 2,7 C 2,7 km/h (1 Bft)
03.10.2013 06:35 2,8 C 95 % 1020,2 hPa 0,0 l/m 0,6 km/h (0 Bft) N 360 2,1 C 2,6 C 0,0 km/h (0 Bft)
03.10.2013 06:40 2,8 C 95 % 1020,2 hPa 0,0 l/m 0,6 km/h (0 Bft) W-NW 292 2,1 C 2,6 C 1,6 km/h (1 Bft)
03.10.2013 06:45 2,8 C 95 % 1020,1 hPa 0,0 l/m 0,6 km/h (0 Bft) W-NW 292 2,1 C 2,6 C 0,0 km/h (0 Bft)
03.10.2013 06:50 2,8 C 95 % 1020,1 hPa 0,0 l/m 0,6 km/h (0 Bft) W 270 2,1 C 2,6 C 2,3 km/h (1 Bft)
03.10.2013 06:55 2,7 C 95 % 1020,1 hPa 0,0 l/m 0,5 km/h (0 Bft) N-NW 337 2,0 C 2,6 C 0,0 km/h (0 Bft)
03.10.2013 07:00 2,6 C 95 % 1020,1 hPa 0,0 l/m 0,3 km/h (0 Bft) N-NO 22 1,9 C 2,6 C 0,0 km/h (0 Bft)
03.10.2013 07:05 2,6 C 95 % 1020,2 hPa 0,0 l/m 0,2 km/h (0 Bft) NO 45 1,9 C 2,5 C 0,0 km/h (0 Bft)
03.10.2013 07:10 2,6 C 95 % 1020,2 hPa 0,0 l/m 0,2 km/h (0 Bft) O 90 1,9 C 2,5 C 0,0 km/h (0 Bft)
03.10.2013 07:15 2,6 C 95 % 1020,2 hPa 0,0 l/m 0,0 km/h (0 Bft) O 90 1,9 C 2,5 C 0,0 km/h (0 Bft)
03.10.2013 07:20 2,6 C 95 % 1020,2 hPa 0,0 l/m 0,0 km/h (0 Bft) O-SO 112 1,9 C 2,5 C 0,0 km/h (0 Bft)
03.10.2013 07:25 2,6 C 95 % 1020,0 hPa 0,0 l/m 0,0 km/h (0 Bft) N-NW 337 1,9 C 2,5 C 0,0 km/h (0 Bft)
03.10.2013 07:30 2,5 C 95 % 1020,0 hPa 0,0 l/m 0,3 km/h (0 Bft) N-NW 337 1,8 C 2,5 C 0,0 km/h (0 Bft)
03.10.2013 07:35 2,4 C 95 % 1020,0 hPa 0,0 l/m 0,5 km/h (0 Bft) N 360 1,7 C 2,4 C 0,0 km/h (0 Bft)
03.10.2013 07:40 2,4 C 95 % 1020,0 hPa 0,0 l/m 0,3 km/h (0 Bft) N 360 1,7 C 2,4 C 0,0 km/h (0 Bft)
03.10.2013 07:45 2,5 C 95 % 1020,0 hPa 0,0 l/m 0,2 km/h (0 Bft) N 360 1,8 C 2,4 C 0,0 km/h (0 Bft)
03.10.2013 07:50 2,5 C 95 % 1020,0 hPa 0,0 l/m 0,2 km/h (0 Bft) N 360 1,8 C 2,4 C 2,1 km/h (1 Bft)
03.10.2013 07:55 2,6 C 95 % 1020,0 hPa 0,0 l/m 1,0 km/h (0 Bft) NO 45 1,9 C 2,5 C 2,3 km/h (1 Bft)
03.10.2013 08:00 2,7 C 95 % 1020,0 hPa 0,0 l/m 0,8 km/h (0 Bft) N 360 2,0 C 2,6 C 0,0 km/h (0 Bft)
03.10.2013 08:05 2,8 C 95 % 1020,0 hPa 0,0 l/m 1,1 km/h (1 Bft) W 270 2,1 C 2,6 C 1,9 km/h (1 Bft)
03.10.2013 08:10 2,8 C 95 % 1020,0 hPa 0,0 l/m 1,8 km/h (1 Bft) W 270 2,1 C 2,7 C 3,5 km/h (1 Bft)
03.10.2013 08:15 3,0 C 94 % 1020,0 hPa 0,0 l/m 1,6 km/h (1 Bft) W 270 2,1 C 2,8 C 2,1 km/h (1 Bft)
03.10.2013 08:20 3,0 C 94 % 1020,0 hPa 0,0 l/m 1,4 km/h (1 Bft) W-NW 292 2,1 C 2,9 C 2,7 km/h (1 Bft)
03.10.2013 08:25 3,1 C 94 % 1020,2 hPa 0,0 l/m 1,3 km/h (1 Bft) W-NW 292 2,2 C 3,0 C 0,0 km/h (0 Bft)
03.10.2013 08:30 3,2 C 94 % 1020,2 hPa 0,0 l/m 0,6 km/h (0 Bft) W-NW 292 2,3 C 3,2 C 1,9 km/h (1 Bft)
03.10.2013 08:35 3,3 C 94 % 1020,2 hPa 0,0 l/m 0,6 km/h (0 Bft) W-NW 292 2,4 C 3,3 C 3,4 km/h (1 Bft)
03.10.2013 08:40 3,3 C 94 % 1020,2 hPa 0,0 l/m 1,1 km/h (1 Bft) W-NW 292 2,4 C 3,4 C 1,6 km/h (1 Bft)
03.10.2013 08:45 3,5 C 94 % 1020,2 hPa 0,0 l/m 1,0 km/h (0 Bft) W-NW 292 2,6 C 3,4 C 2,6 km/h (1 Bft)
03.10.2013 08:50 3,6 C 94 % 1020,2 hPa 0,0 l/m 1,3 km/h (1 Bft) N-NW 337 2,7 C 3,5 C 2,6 km/h (1 Bft)
03.10.2013 08:55 3,5 C 94 % 1020,2 hPa 0,0 l/m 1,6 km/h (1 Bft) W 270 2,6 C 3,7 C 0,0 km/h (0 Bft)
03.10.2013 09:00 3,7 C 94 % 1020,2 hPa 0,0 l/m 1,0 km/h (0 Bft) N 360 2,8 C 3,8 C 3,2 km/h (1 Bft)
03.10.2013 09:05 4,0 C 93 % 1020,4 hPa 0,0 l/m 0,3 km/h (0 Bft) NO 45 3,0 C 4,1 C 0,0 km/h (0 Bft)
03.10.2013 09:10 3,9 C 94 % 1020,4 hPa 0,0 l/m 0,3 km/h (0 Bft) O-SO 112 3,0 C 4,2 C 0,0 km/h (0 Bft)
03.10.2013 09:15 4,0 C 93 % 1020,4 hPa 0,0 l/m 0,6 km/h (0 Bft) W 270 3,0 C 4,4 C 0,0 km/h (0 Bft)
03.10.2013 09:20 4,2 C 93 % 1020,4 hPa 0,0 l/m 0,5 km/h (0 Bft) W 270 3,2 C 4,6 C 0,0 km/h (0 Bft)
03.10.2013 09:25 4,4 C 93 % 1020,5 hPa 0,0 l/m 1,0 km/h (0 Bft) N-NW 337 3,4 C 4,8 C 3,1 km/h (1 Bft)
03.10.2013 09:30 4,4 C 93 % 1020,5 hPa 0,0 l/m 1,6 km/h (1 Bft) N-NW 337 3,4 C 4,9 C 4,2 km/h (1 Bft)
03.10.2013 09:35 4,4 C 93 % 1020,5 hPa 0,0 l/m 1,1 km/h (1 Bft) N-NW 337 3,4 C 5,2 C 2,1 km/h (1 Bft)
03.10.2013 09:40 4,4 C 92 % 1020,5 hPa 0,0 l/m 1,0 km/h (0 Bft) W-SW 247 3,2 C 5,4 C 2,7 km/h (1 Bft)
03.10.2013 09:45 4,7 C 92 % 1020,8 hPa 0,0 l/m 1,4 km/h (1 Bft) W-NW 292 3,5 C 5,5 C 1,9 km/h (1 Bft)
03.10.2013 09:50 4,8 C 92 % 1020,8 hPa 0,0 l/m 1,9 km/h (1 Bft) W-SW 247 3,6 C 5,4 C 2,4 km/h (1 Bft)
03.10.2013 09:55 4,7 C 92 % 1020,8 hPa 0,0 l/m 1,6 km/h (1 Bft) N-NO 22 3,5 C 5,8 C 2,7 km/h (1 Bft)
03.10.2013 10:00 5,1 C 91 % 1020,8 hPa 0,0 l/m 1,1 km/h (1 Bft) W-NW 292 3,8 C 5,9 C 1,8 km/h (1 Bft)
03.10.2013 10:05 5,3 C 91 % 1020,9 hPa 0,0 l/m 1,8 km/h (1 Bft) NW 315 4,0 C 6,0 C 4,2 km/h (1 Bft)
03.10.2013 10:10 5,1 C 90 % 1020,9 hPa 0,0 l/m 2,1 km/h (1 Bft) N 360 3,6 C 6,0 C 3,2 km/h (1 Bft)
03.10.2013 10:15 5,3 C 90 % 1020,9 hPa 0,0 l/m 2,9 km/h (1 Bft) NW 315 3,8 C 6,1 C 5,1 km/h (1 Bft)
03.10.2013 10:20 5,3 C 89 % 1020,9 hPa 0,0 l/m 2,9 km/h (1 Bft) W 270 3,6 C 6,1 C 2,7 km/h (1 Bft)
03.10.2013 10:25 5,6 C 89 % 1021,2 hPa 0,0 l/m 3,1 km/h (1 Bft) S-SW 202 3,9 C 6,2 C 2,7 km/h (1 Bft)
03.10.2013 10:30 5,7 C 89 % 1021,2 hPa 0,0 l/m 3,2 km/h (1 Bft) W 270 4,0 C 6,3 C 4,8 km/h (1 Bft)
03.10.2013 10:35 5,7 C 89 % 1021,2 hPa 0,0 l/m 3,2 km/h (1 Bft) W-NW 292 4,0 C 6,3 C 2,6 km/h (1 Bft)
03.10.2013 10:40 5,6 C 88 % 1021,2 hPa 0,0 l/m 2,9 km/h (1 Bft) N 360 3,8 C 6,4 C 5,0 km/h (1 Bft)
03.10.2013 10:45 5,9 C 88 % 1021,3 hPa 0,0 l/m 2,3 km/h (1 Bft) W-NW 292 4,1 C 6,7 C 3,4 km/h (1 Bft)
03.10.2013 10:50 6,2 C 88 % 1021,3 hPa 0,0 l/m 2,3 km/h (1 Bft) W-NW 292 4,4 C 6,9 C 4,0 km/h (1 Bft)
03.10.2013 10:55 6,7 C 87 % 1021,3 hPa 0,0 l/m 2,9 km/h (1 Bft) W-SW 247 4,7 C 7,2 C 3,9 km/h (1 Bft)
03.10.2013 11:00 6,5 C 87 % 1021,3 hPa 0,0 l/m 3,4 km/h (1 Bft) W-NW 292 4,5 C 7,2 C 3,5 km/h (1 Bft)
03.10.2013 11:05 6,5 C 86 % 1021,8 hPa 0,0 l/m 2,7 km/h (1 Bft) W-NW 292 4,3 C 7,6 C 2,7 km/h (1 Bft)
03.10.2013 11:10 6,9 C 86 % 1021,8 hPa 0,0 l/m 2,6 km/h (1 Bft) W 270 4,7 C 7,7 C 3,5 km/h (1 Bft)
03.10.2013 11:15 6,7 C 84 % 1021,8 hPa 0,0 l/m 3,4 km/h (1 Bft) N 360 4,2 C 8,0 C 4,5 km/h (1 Bft)
03.10.2013 11:20 6,8 C 83 % 1021,8 hPa 0,0 l/m 3,4 km/h (1 Bft) N 360 4,1 C 8,2 C 2,9 km/h (1 Bft)
03.10.2013 11:25 7,4 C 83 % 1022,1 hPa 0,0 l/m 2,7 km/h (1 Bft) O-NO 67 4,7 C 8,5 C 4,5 km/h (1 Bft)
03.10.2013 11:30 7,3 C 82 % 1022,1 hPa 0,0 l/m 2,7 km/h (1 Bft) N 360 4,4 C 8,9 C 6,0 km/h (2 Bft)
03.10.2013 11:35 7,8 C 82 % 1022,1 hPa 0,0 l/m 2,9 km/h (1 Bft) W-NW 292 4,9 C 9,1 C 1,6 km/h (1 Bft)
03.10.2013 11:40 7,8 C 82 % 1022,1 hPa 0,0 l/m 3,1 km/h (1 Bft) W 270 4,9 C 9,3 C 4,5 km/h (1 Bft)
03.10.2013 11:45 7,6 C 81 % 1022,2 hPa 0,0 l/m 3,9 km/h (1 Bft) W-NW 292 4,6 C 9,0 C 5,0 km/h (1 Bft)
03.10.2013 11:50 7,6 C 81 % 1022,2 hPa 0,0 l/m 4,0 km/h (1 Bft) W 270 4,6 C 8,8 C 6,8 km/h (2 Bft)
03.10.2013 11:55 7,4 C 81 % 1022,2 hPa 0,0 l/m 4,0 km/h (1 Bft) N-NW 337 4,4 C 8,7 C 5,5 km/h (1 Bft)
03.10.2013 12:00 7,3 C 80 % 1022,2 hPa 0,0 l/m 3,9 km/h (1 Bft) NW 315 4,1 C 8,9 C 4,3 km/h (1 Bft)
03.10.2013 12:05 7,7 C 81 % 1022,2 hPa 0,0 l/m 3,2 km/h (1 Bft) NW 315 4,7 C 9,3 C 2,4 km/h (1 Bft)
03.10.2013 12:10 7,4 C 80 % 1022,2 hPa 0,0 l/m 4,5 km/h (1 Bft) N 360 4,2 C 9,1 C 6,6 km/h (2 Bft)
03.10.2013 12:15 7,7 C 81 % 1022,2 hPa 0,0 l/m 5,1 km/h (1 Bft) N-NW 337 4,7 C 8,6 C 9,5 km/h (2 Bft)
03.10.2013 12:20 7,5 C 80 % 1022,2 hPa 0,0 l/m 4,0 km/h (1 Bft) N 360 4,3 C 9,1 C 3,5 km/h (1 Bft)
03.10.2013 12:25 8,1 C 81 % 1022,2 hPa 0,0 l/m 2,7 km/h (1 Bft) W-NW 292 5,0 C 9,3 C 2,6 km/h (1 Bft)
03.10.2013 12:30 8,1 C 80 % 1022,2 hPa 0,0 l/m 2,9 km/h (1 Bft) W-NW 292 4,9 C 9,6 C 7,7 km/h (2 Bft)
03.10.2013 12:35 8,1 C 79 % 1022,2 hPa 0,0 l/m 3,7 km/h (1 Bft) N-NO 22 4,7 C 9,3 C 3,1 km/h (1 Bft)
03.10.2013 12:40 7,9 C 79 % 1022,2 hPa 0,0 l/m 4,0 km/h (1 Bft) N 360 4,5 C 9,6 C 4,5 km/h (1 Bft)
03.10.2013 12:45 8,5 C 79 % 1022,1 hPa 0,0 l/m 3,5 km/h (1 Bft) N-NW 337 5,1 C 10,0 C 4,2 km/h (1 Bft)
03.10.2013 12:50 8,3 C 78 % 1022,1 hPa 0,0 l/m 4,0 km/h (1 Bft) NW 315 4,7 C 10,1 C 5,6 km/h (1 Bft)
03.10.2013 12:55 8,6 C 78 % 1022,1 hPa 0,0 l/m 4,2 km/h (1 Bft) W 270 5,0 C 10,1 C 4,8 km/h (1 Bft)
03.10.2013 13:00 9,0 C 78 % 1022,1 hPa 0,0 l/m 3,9 km/h (1 Bft) NW 315 5,4 C 10,5 C 6,6 km/h (2 Bft)
03.10.2013 13:05 8,7 C 77 % 1022,1 hPa 0,0 l/m 3,5 km/h (1 Bft) N 360 4,9 C 10,8 C 0,0 km/h (0 Bft)
03.10.2013 13:10 8,8 C 77 % 1022,1 hPa 0,0 l/m 3,7 km/h (1 Bft) N-NW 337 5,0 C 11,0 C 3,7 km/h (1 Bft)
03.10.2013 13:15 8,9 C 78 % 1022,1 hPa 0,0 l/m 4,0 km/h (1 Bft) W-SW 247 5,3 C 10,6 C 5,6 km/h (1 Bft)
03.10.2013 13:20 8,9 C 77 % 1022,1 hPa 0,0 l/m 4,2 km/h (1 Bft) W 270 5,1 C 10,5 C 6,3 km/h (2 Bft)
03.10.2013 13:25 8,8 C 77 % 1022,2 hPa 0,0 l/m 4,2 km/h (1 Bft) N-NW 337 5,0 C 10,3 C 7,4 km/h (2 Bft)
03.10.2013 13:30 8,4 C 78 % 1022,2 hPa 0,0 l/m 4,2 km/h (1 Bft) W 270 4,8 C 10,3 C 6,9 km/h (2 Bft)
03.10.2013 13:35 8,5 C 78 % 1022,2 hPa 0,0 l/m 3,9 km/h (1 Bft) N 360 4,9 C 10,4 C 3,9 km/h (1 Bft)
03.10.2013 13:40 8,9 C 78 % 1022,2 hPa 0,0 l/m 3,7 km/h (1 Bft) N 360 5,3 C 11,0 C 3,7 km/h (1 Bft)
03.10.2013 13:45 9,5 C 75 % 1021,9 hPa 0,0 l/m 4,2 km/h (1 Bft) N-NW 337 5,3 C 12,0 C 7,1 km/h (2 Bft)
03.10.2013 13:50 10,2 C 75 % 1021,9 hPa 0,0 l/m 3,4 km/h (1 Bft) N-NO 22 6,0 C 12,6 C 0,0 km/h (0 Bft)
03.10.2013 13:55 10,6 C 73 % 1021,9 hPa 0,0 l/m 2,6 km/h (1 Bft) N 360 6,0 C 13,8 C 2,6 km/h (1 Bft)
03.10.2013 14:00 10,9 C 72 % 1021,9 hPa 0,0 l/m 2,6 km/h (1 Bft) N-NW 337 6,1 C 14,5 C 2,9 km/h (1 Bft)
03.10.2013 14:05 11,2 C 69 % 1021,9 hPa 0,0 l/m 2,6 km/h (1 Bft) N-NO 22 5,7 C 15,4 C 5,0 km/h (1 Bft)
03.10.2013 14:10 11,4 C 70 % 1021,9 hPa 0,0 l/m 2,6 km/h (1 Bft) N-NW 337 6,1 C 15,9 C 5,5 km/h (1 Bft)
03.10.2013 14:15 11,1 C 71 % 1021,9 hPa 0,0 l/m 3,5 km/h (1 Bft) O-SO 112 6,0 C 16,1 C 4,5 km/h (1 Bft)
03.10.2013 14:20 10,8 C 73 % 1021,9 hPa 0,0 l/m 4,0 km/h (1 Bft) N-NW 337 6,2 C 16,4 C 7,7 km/h (2 Bft)
03.10.2013 14:25 10,5 C 75 % 1022,1 hPa 0,0 l/m 4,2 km/h (1 Bft) N-NO 22 6,3 C 16,3 C 9,7 km/h (2 Bft)
03.10.2013 14:30 10,6 C 76 % 1022,1 hPa 0,0 l/m 5,0 km/h (1 Bft) N-NO 22 6,5 C 16,2 C 6,3 km/h (2 Bft)
03.10.2013 14:35 10,8 C 76 % 1022,1 hPa 0,0 l/m 5,5 km/h (1 Bft) W-NW 292 6,7 C 15,9 C 5,5 km/h (1 Bft)
03.10.2013 14:40 10,9 C 76 % 1022,1 hPa 0,0 l/m 5,1 km/h (1 Bft) NO 45 6,8 C 15,9 C 6,8 km/h (2 Bft)
03.10.2013 14:45 11,0 C 76 % 1022,1 hPa 0,0 l/m 3,9 km/h (1 Bft) N-NW 337 6,9 C 16,8 C 1,8 km/h (1 Bft)
03.10.2013 14:50 11,2 C 76 % 1022,1 hPa 0,0 l/m 4,0 km/h (1 Bft) NO 45 7,1 C 16,8 C 7,2 km/h (2 Bft)
03.10.2013 14:55 11,3 C 77 % 1022,1 hPa 0,0 l/m 4,8 km/h (1 Bft) N 360 7,4 C 16,7 C 6,1 km/h (2 Bft)
03.10.2013 15:00 11,4 C 77 % 1022,1 hPa 0,0 l/m 4,8 km/h (1 Bft) NW 315 7,5 C 17,0 C 5,6 km/h (1 Bft)
03.10.2013 15:05 11,4 C 76 % 1021,9 hPa 0,0 l/m 4,2 km/h (1 Bft) W-NW 292 7,3 C 17,6 C 10,9 km/h (2 Bft)
03.10.2013 15:10 11,4 C 77 % 1021,9 hPa 0,0 l/m 3,7 km/h (1 Bft) N-NW 337 7,5 C 17,9 C 2,1 km/h (1 Bft)
03.10.2013 15:15 11,6 C 78 % 1021,9 hPa 0,0 l/m 3,5 km/h (1 Bft) NO 45 7,9 C 18,3 C 2,6 km/h (1 Bft)
03.10.2013 15:20 11,5 C 77 % 1021,9 hPa 0,0 l/m 3,2 km/h (1 Bft) NO 45 7,6 C 18,3 C 4,0 km/h (1 Bft)
03.10.2013 15:25 11,6 C 78 % 1021,9 hPa 0,0 l/m 3,5 km/h (1 Bft) W-NW 292 7,9 C 18,0 C 8,0 km/h (2 Bft)
03.10.2013 15:30 11,6 C 78 % 1021,9 hPa 0,0 l/m 3,4 km/h (1 Bft) N-NO 22 7,9 C 17,5 C 3,4 km/h (1 Bft)
03.10.2013 15:35 11,8 C 78 % 1021,9 hPa 0,0 l/m 4,0 km/h (1 Bft) N-NW 337 8,1 C 17,4 C 5,8 km/h (2 Bft)
03.10.2013 15:40 11,9 C 78 % 1021,9 hPa 0,0 l/m 4,7 km/h (1 Bft) N-NO 22 8,2 C 17,1 C 5,5 km/h (1 Bft)
03.10.2013 15:45 12,0 C 78 % 1022,1 hPa 0,0 l/m 3,7 km/h (1 Bft) W-SW 247 8,3 C 17,3 C 2,3 km/h (1 Bft)
03.10.2013 15:50 12,1 C 78 % 1022,1 hPa 0,0 l/m 2,9 km/h (1 Bft) W-NW 292 8,4 C 17,5 C 4,8 km/h (1 Bft)
03.10.2013 15:55 12,4 C 77 % 1022,1 hPa 0,0 l/m 4,3 km/h (1 Bft) S 180 8,5 C 17,0 C 11,3 km/h (2 Bft)
03.10.2013 16:00 12,5 C 77 % 1022,1 hPa 0,0 l/m 4,5 km/h (1 Bft) W 270 8,6 C 16,6 C 2,4 km/h (1 Bft)
03.10.2013 16:05 12,7 C 76 % 1021,4 hPa 0,0 l/m 3,7 km/h (1 Bft) SO 135 8,6 C 17,2 C 12,2 km/h (2 Bft)
03.10.2013 16:10 12,7 C 74 % 1021,4 hPa 0,0 l/m 4,8 km/h (1 Bft) O-SO 112 8,2 C 17,3 C 6,8 km/h (2 Bft)
03.10.2013 16:15 12,7 C 74 % 1021,4 hPa 0,0 l/m 5,8 km/h (2 Bft) N-NW 337 8,2 C 16,7 C 5,0 km/h (1 Bft)
03.10.2013 16:20 12,7 C 74 % 1021,4 hPa 0,0 l/m 5,0 km/h (1 Bft) N-NW 337 8,2 C 16,2 C 3,1 km/h (1 Bft)
03.10.2013 16:25 12,7 C 72 % 1021,4 hPa 0,0 l/m 4,0 km/h (1 Bft) NW 315 7,8 C 16,0 C 8,7 km/h (2 Bft)
03.10.2013 16:30 12,7 C 72 % 1021,4 hPa 0,0 l/m 4,0 km/h (1 Bft) NO 45 7,8 C 16,1 C 4,8 km/h (1 Bft)
03.10.2013 16:35 12,7 C 73 % 1021,4 hPa 0,0 l/m 4,7 km/h (1 Bft) N-NW 337 8,0 C 16,8 C 4,7 km/h (1 Bft)
03.10.2013 16:40 12,6 C 73 % 1021,4 hPa 0,0 l/m 3,5 km/h (1 Bft) N 360 7,9 C 17,3 C 2,7 km/h (1 Bft)
03.10.2013 16:45 12,2 C 74 % 1021,2 hPa 0,0 l/m 2,6 km/h (1 Bft) N-NW 337 7,7 C 16,5 C 0,0 km/h (0 Bft)
03.10.2013 16:50 12,2 C 74 % 1021,2 hPa 0,0 l/m 1,9 km/h (1 Bft) N 360 7,7 C 16,2 C 2,4 km/h (1 Bft)
03.10.2013 16:55 12,1 C 75 % 1021,2 hPa 0,0 l/m 1,8 km/h (1 Bft) N-NO 22 7,8 C 15,9 C 2,4 km/h (1 Bft)
03.10.2013 17:00 12,0 C 76 % 1021,2 hPa 0,0 l/m 2,4 km/h (1 Bft) W-NW 292 7,9 C 16,2 C 6,3 km/h (2 Bft)
03.10.2013 17:05 12,2 C 76 % 1021,3 hPa 0,0 l/m 2,6 km/h (1 Bft) N 360 8,1 C 17,0 C 4,2 km/h (1 Bft)
03.10.2013 17:10 12,1 C 76 % 1021,3 hPa 0,0 l/m 2,9 km/h (1 Bft) NO 45 8,0 C 17,6 C 0,0 km/h (0 Bft)
03.10.2013 17:15 12,0 C 77 % 1021,3 hPa 0,0 l/m 2,9 km/h (1 Bft) NW 315 8,1 C 18,3 C 6,6 km/h (2 Bft)
03.10.2013 17:20 12,1 C 77 % 1021,3 hPa 0,0 l/m 2,9 km/h (1 Bft) NW 315 8,2 C 17,8 C 7,6 km/h (2 Bft)
03.10.2013 17:25 12,0 C 77 % 1021,4 hPa 0,0 l/m 2,4 km/h (1 Bft) N 360 8,1 C 17,6 C 3,5 km/h (1 Bft)
03.10.2013 17:30 11,9 C 78 % 1021,4 hPa 0,0 l/m 1,8 km/h (1 Bft) N 360 8,2 C 17,0 C 3,1 km/h (1 Bft)
03.10.2013 17:35 11,7 C 78 % 1021,4 hPa 0,0 l/m 1,3 km/h (1 Bft) N 360 8,0 C 16,1 C 1,9 km/h (1 Bft)
03.10.2013 17:40 11,7 C 78 % 1021,4 hPa 0,0 l/m 1,4 km/h (1 Bft) NW 315 8,0 C 16,0 C 2,9 km/h (1 Bft)
03.10.2013 17:45 11,5 C 78 % 1021,4 hPa 0,0 l/m 1,4 km/h (1 Bft) O 90 7,8 C 16,2 C 0,0 km/h (0 Bft)
03.10.2013 17:50 11,4 C 78 % 1021,4 hPa 0,0 l/m 1,1 km/h (1 Bft) N-NO 22 7,7 C 16,2 C 5,8 km/h (2 Bft)
03.10.2013 17:55 11,1 C 79 % 1021,4 hPa 0,0 l/m 1,4 km/h (1 Bft) NW 315 7,6 C 15,2 C 0,0 km/h (0 Bft)
03.10.2013 18:00 10,9 C 79 % 1021,4 hPa 0,0 l/m 2,3 km/h (1 Bft) W-NW 292 7,4 C 14,8 C 3,9 km/h (1 Bft)
03.10.2013 18:05 10,8 C 79 % 1021,4 hPa 0,0 l/m 1,4 km/h (1 Bft) O-NO 67 7,3 C 14,1 C 0,0 km/h (0 Bft)
03.10.2013 18:10 10,5 C 79 % 1021,4 hPa 0,0 l/m 0,8 km/h (0 Bft) N 360 7,0 C 13,9 C 2,4 km/h (1 Bft)
03.10.2013 18:15 10,3 C 79 % 1021,4 hPa 0,0 l/m 0,5 km/h (0 Bft) O 90 6,8 C 13,0 C 1,6 km/h (1 Bft)
03.10.2013 18:20 10,1 C 80 % 1021,4 hPa 0,0 l/m 0,5 km/h (0 Bft) O 90 6,8 C 12,3 C 0,0 km/h (0 Bft)
03.10.2013 18:25 10,0 C 81 % 1021,6 hPa 0,0 l/m 0,2 km/h (0 Bft) NO 45 6,9 C 11,4 C 0,0 km/h (0 Bft)
03.10.2013 18:30 9,9 C 81 % 1021,6 hPa 0,0 l/m 0,2 km/h (0 Bft) N-NO 22 6,8 C 10,9 C 2,6 km/h (1 Bft)
03.10.2013 18:35 9,7 C 82 % 1021,6 hPa 0,0 l/m 0,2 km/h (0 Bft) NO 45 6,8 C 10,4 C 0,0 km/h (0 Bft)
03.10.2013 18:40 9,4 C 82 % 1021,6 hPa 0,0 l/m 0,3 km/h (0 Bft) O-NO 67 6,5 C 10,1 C 0,0 km/h (0 Bft)
03.10.2013 18:45 9,2 C 82 % 1021,6 hPa 0,0 l/m 0,2 km/h (0 Bft) NO 45 6,3 C 9,7 C 0,0 km/h (0 Bft)
03.10.2013 18:50 9,1 C 83 % 1021,6 hPa 0,0 l/m 0,0 km/h (0 Bft) NO 45 6,4 C 9,4 C 0,0 km/h (0 Bft)
03.10.2013 18:55 8,9 C 84 % 1021,6 hPa 0,0 l/m 0,0 km/h (0 Bft) NO 45 6,3 C 9,1 C 0,0 km/h (0 Bft)
03.10.2013 19:00 8,8 C 84 % 1021,6 hPa 0,0 l/m 0,2 km/h (0 Bft) NO 45 6,2 C 9,0 C 0,0 km/h (0 Bft)
03.10.2013 19:05 8,7 C 85 % 1021,6 hPa 0,0 l/m 0,5 km/h (0 Bft) O-NO 67 6,3 C 8,7 C 2,4 km/h (1 Bft)
03.10.2013 19:10 8,6 C 85 % 1021,6 hPa 0,0 l/m 0,5 km/h (0 Bft) O-NO 67 6,2 C 8,5 C 1,8 km/h (1 Bft)
03.10.2013 19:15 8,5 C 86 % 1021,6 hPa 0,0 l/m 0,8 km/h (0 Bft) NO 45 6,3 C 8,4 C 2,6 km/h (1 Bft)
03.10.2013 19:18 8,6 C 86 % 1021,6 hPa 0,0 l/m 1,3 km/h (1 Bft) N-NO 22 6,4 C 8,3 C 3,5 km/h (1 Bft)
03.10.2013 19:23 8,5 C 86 % 1021,8 hPa 0,0 l/m 1,4 km/h (1 Bft) O-NO 67 6,3 C 8,3 C 1,8 km/h (1 Bft)
03.10.2013 19:28 8,4 C 85 % 1021,8 hPa 0,0 l/m 1,0 km/h (0 Bft) O-NO 67 6,0 C 8,1 C 1,6 km/h (1 Bft)
03.10.2013 19:30 8,4 C 85 % 1021,8 hPa 0,0 l/m 1,0 km/h (0 Bft) O-NO 67 6,0 C 8,1 C 1,6 km/h (1 Bft)
03.10.2013 19:35 8,3 C 86 % 1021,8 hPa 0,0 l/m 0,5 km/h (0 Bft) O-NO 67 6,1 C 8,0 C 1,9 km/h (1 Bft)
03.10.2013 19:40 8,2 C 86 % 1021,8 hPa 0,0 l/m 0,8 km/h (0 Bft) O 90 6,0 C 7,8 C 1,6 km/h (1 Bft)
03.10.2013 19:45 8,1 C 86 % 1022,0 hPa 0,0 l/m 1,0 km/h (0 Bft) NO 45 5,9 C 7,7 C 2,3 km/h (1 Bft)
03.10.2013 19:50 8,1 C 86 % 1022,0 hPa 0,0 l/m 1,6 km/h (1 Bft) O 90 5,9 C 7,6 C 3,9 km/h (1 Bft)
03.10.2013 19:55 8,1 C 86 % 1022,0 hPa 0,0 l/m 1,9 km/h (1 Bft) O-NO 67 5,9 C 7,6 C 3,2 km/h (1 Bft)
03.10.2013 20:00 8,0 C 86 % 1022,0 hPa 0,0 l/m 2,1 km/h (1 Bft) O-NO 67 5,8 C 7,6 C 2,7 km/h (1 Bft)
03.10.2013 20:05 7,9 C 86 % 1021,8 hPa 0,0 l/m 1,6 km/h (1 Bft) O-NO 67 5,7 C 7,5 C 1,9 km/h (1 Bft)
03.10.2013 20:10 7,8 C 86 % 1021,8 hPa 0,0 l/m 1,3 km/h (1 Bft) NO 45 5,6 C 7,5 C 1,6 km/h (1 Bft)
03.10.2013 20:15 7,7 C 86 % 1021,8 hPa 0,0 l/m 1,4 km/h (1 Bft) N-NO 22 5,5 C 7,3 C 2,1 km/h (1 Bft)
03.10.2013 20:20 7,6 C 86 % 1021,8 hPa 0,0 l/m 1,8 km/h (1 Bft) O 90 5,4 C 7,3 C 1,8 km/h (1 Bft)
03.10.2013 20:25 7,5 C 86 % 1022,0 hPa 0,0 l/m 2,3 km/h (1 Bft) NO 45 5,3 C 7,3 C 2,4 km/h (1 Bft)
03.10.2013 20:30 7,4 C 86 % 1022,0 hPa 0,0 l/m 2,1 km/h (1 Bft) O 90 5,2 C 7,3 C 2,1 km/h (1 Bft)
03.10.2013 20:35 7,5 C 86 % 1022,0 hPa 0,0 l/m 2,1 km/h (1 Bft) NO 45 5,3 C 7,3 C 0,0 km/h (0 Bft)
03.10.2013 20:40 7,4 C 86 % 1022,0 hPa 0,0 l/m 1,3 km/h (1 Bft) NO 45 5,2 C 7,2 C 0,0 km/h (0 Bft)
03.10.2013 20:45 6,8 C 86 % 1022,1 hPa 0,0 l/m 0,2 km/h (0 Bft) O 90 4,6 C 6,8 C 0,0 km/h (0 Bft)
03.10.2013 20:50 6,4 C 86 % 1022,1 hPa 0,0 l/m 0,0 km/h (0 Bft) O-SO 112 4,2 C 6,5 C 0,0 km/h (0 Bft)
03.10.2013 20:55 6,1 C 86 % 1022,1 hPa 0,0 l/m 0,0 km/h (0 Bft) O 90 3,9 C 6,2 C 1,8 km/h (1 Bft)
03.10.2013 21:00 6,3 C 87 % 1022,1 hPa 0,0 l/m 0,0 km/h (0 Bft) O 90 4,3 C 6,0 C 0,0 km/h (0 Bft)
03.10.2013 21:05 6,1 C 87 % 1021,9 hPa 0,0 l/m 0,0 km/h (0 Bft) O 90 4,1 C 6,0 C 0,0 km/h (0 Bft)
03.10.2013 21:10 6,2 C 87 % 1021,9 hPa 0,0 l/m 0,2 km/h (0 Bft) O-NO 67 4,2 C 6,0 C 0,0 km/h (0 Bft)
03.10.2013 21:15 5,9 C 88 % 1021,9 hPa 0,0 l/m 0,2 km/h (0 Bft) O-SO 112 4,1 C 5,8 C 0,0 km/h (0 Bft)
03.10.2013 21:20 5,8 C 88 % 1021,9 hPa 0,0 l/m 0,0 km/h (0 Bft) NO 45 4,0 C 5,7 C 0,0 km/h (0 Bft)
03.10.2013 21:25 6,0 C 88 % 1022,1 hPa 0,0 l/m 0,5 km/h (0 Bft) O 90 4,2 C 5,6 C 0,0 km/h (0 Bft)
03.10.2013 21:30 5,8 C 89 % 1022,1 hPa 0,0 l/m 0,5 km/h (0 Bft) O-SO 112 4,1 C 5,6 C 0,0 km/h (0 Bft)
03.10.2013 21:35 5,8 C 89 % 1022,1 hPa 0,0 l/m 0,6 km/h (0 Bft) NO 45 4,1 C 5,6 C 3,2 km/h (1 Bft)
03.10.2013 21:40 5,9 C 89 % 1022,1 hPa 0,0 l/m 1,0 km/h (0 Bft) NO 45 4,2 C 5,6 C 2,6 km/h (1 Bft)
03.10.2013 21:45 5,8 C 90 % 1022,2 hPa 0,0 l/m 1,3 km/h (1 Bft) O-SO 112 4,3 C 5,6 C 0,0 km/h (0 Bft)
03.10.2013 21:50 5,7 C 90 % 1022,2 hPa 0,0 l/m 1,0 km/h (0 Bft) NO 45 4,2 C 5,5 C 0,0 km/h (0 Bft)
03.10.2013 21:55 5,7 C 91 % 1022,2 hPa 0,0 l/m 0,2 km/h (0 Bft) NO 45 4,3 C 5,4 C 0,0 km/h (0 Bft)
03.10.2013 22:00 5,8 C 91 % 1022,2 hPa 0,0 l/m 0,2 km/h (0 Bft) NO 45 4,4 C 5,5 C 0,0 km/h (0 Bft)
03.10.2013 22:05 5,8 C 91 % 1021,9 hPa 0,0 l/m 1,0 km/h (0 Bft) NO 45 4,4 C 5,5 C 1,9 km/h (1 Bft)
03.10.2013 22:10 5,5 C 91 % 1021,9 hPa 0,0 l/m 0,6 km/h (0 Bft) NO 45 4,2 C 5,4 C 0,0 km/h (0 Bft)
03.10.2013 22:15 5,1 C 91 % 1021,9 hPa 0,0 l/m 0,0 km/h (0 Bft) NO 45 3,8 C 5,3 C 0,0 km/h (0 Bft)
03.10.2013 22:20 5,1 C 91 % 1021,9 hPa 0,0 l/m 0,3 km/h (0 Bft) N-NO 22 3,8 C 5,1 C 1,6 km/h (1 Bft)
03.10.2013 22:25 5,0 C 91 % 1021,8 hPa 0,0 l/m 0,3 km/h (0 Bft) N-NO 22 3,7 C 5,2 C 0,0 km/h (0 Bft)
03.10.2013 22:30 5,0 C 91 % 1021,8 hPa 0,0 l/m 0,2 km/h (0 Bft) N-NO 22 3,7 C 5,2 C 0,0 km/h (0 Bft)
03.10.2013 22:35 5,0 C 91 % 1021,8 hPa 0,0 l/m 0,0 km/h (0 Bft) O-SO 112 3,7 C 5,1 C 0,0 km/h (0 Bft)
03.10.2013 22:40 5,0 C 91 % 1021,8 hPa 0,0 l/m 0,0 km/h (0 Bft) NO 45 3,7 C 5,0 C 0,0 km/h (0 Bft)
03.10.2013 22:45 5,0 C 91 % 1021,8 hPa 0,0 l/m 0,0 km/h (0 Bft) N-NO 22 3,7 C 5,1 C 0,0 km/h (0 Bft)
03.10.2013 22:50 4,8 C 91 % 1021,8 hPa 0,0 l/m 0,0 km/h (0 Bft) N-NO 22 3,5 C 5,0 C 0,0 km/h (0 Bft)
03.10.2013 22:55 4,7 C 91 % 1021,8 hPa 0,0 l/m 0,0 km/h (0 Bft) O-SO 112 3,4 C 4,9 C 0,0 km/h (0 Bft)
03.10.2013 23:00 4,9 C 92 % 1021,8 hPa 0,0 l/m 0,3 km/h (0 Bft) O-SO 112 3,7 C 5,0 C 1,6 km/h (1 Bft)
03.10.2013 23:05 4,8 C 92 % 1021,8 hPa 0,0 l/m 0,3 km/h (0 Bft) O-SO 112 3,6 C 5,0 C 0,0 km/h (0 Bft)
03.10.2013 23:10 4,9 C 92 % 1021,8 hPa 0,0 l/m 0,0 km/h (0 Bft) NO 45 3,7 C 5,0 C 0,0 km/h (0 Bft)
03.10.2013 23:15 4,9 C 92 % 1021,8 hPa 0,0 l/m 0,0 km/h (0 Bft) O-SO 112 3,7 C 5,1 C 0,0 km/h (0 Bft)
03.10.2013 23:20 4,8 C 92 % 1021,8 hPa 0,0 l/m 0,0 km/h (0 Bft) O-SO 112 3,6 C 5,1 C 0,0 km/h (0 Bft)
03.10.2013 23:25 4,8 C 92 % 1021,8 hPa 0,0 l/m 0,0 km/h (0 Bft) O-NO 67 3,6 C 5,0 C 0,0 km/h (0 Bft)
03.10.2013 23:30 4,8 C 92 % 1021,8 hPa 0,0 l/m 0,0 km/h (0 Bft) O-SO 112 3,6 C 5,0 C 0,0 km/h (0 Bft)
03.10.2013 23:35 4,8 C 92 % 1021,8 hPa 0,0 l/m 0,0 km/h (0 Bft) O 90 3,6 C 5,1 C 0,0 km/h (0 Bft)
03.10.2013 23:40 4,8 C 92 % 1021,8 hPa 0,0 l/m 0,0 km/h (0 Bft) O 90 3,6 C 5,1 C 0,0 km/h (0 Bft)
03.10.2013 23:45 5,0 C 92 % 1021,6 hPa 0,0 l/m 0,0 km/h (0 Bft) NO 45 3,8 C 5,2 C 0,0 km/h (0 Bft)
03.10.2013 23:50 5,1 C 92 % 1021,6 hPa 0,0 l/m 0,0 km/h (0 Bft) NO 45 3,9 C 5,3 C 0,0 km/h (0 Bft)
03.10.2013 23:55 5,2 C 92 % 1021,6 hPa 0,0 l/m 0,3 km/h (0 Bft) SO 135 4,0 C 5,4 C 1,6 km/h (1 Bft)
_ Min-Zeit 07:40 14:05 08:20 - 23:50 - - 07:40 07:50 23:50
Minimum _ 2,4 C 69 % 1020,0 hPa - 0,0 km/h (0 Bft) - - 1,7 C 2,4 C 0,0 km/h (0 Bft)
_ Max-Zeit 16:35 08:10 22:00 23:55 16:15 - - 16:05 17:15 16:05
Maximum _ 12,7 C 95 % 1022,2 hPa 0,0 l/m 5,8 km/h
N-NW (2 Bft)
- - 8,6 C 18,3 C 12,2 km/h
SO (2 Bft)
Durchschnitt _ 6,5 C 87 % 1021,3 hPa #0,0 l/m 2,0 km/h (1 Bft) W-NW - 4,4 C 7,7 C 2,8 km/h (1 Bft)